AD8HP Weather Reports


time (UTC)temp
F
wind
direction
speed
knots
gust
knots
rain 1hr
in
rain 24hr
in
rain mn
in
humidity
%
barometer
mb
20260507075508 41 254 0.9 3.5 0.00 0.00 0.00 73 1013.5
20260507075011 41 254 1.7 3.5 0.00 0.00 0.00 73 1013.5
20260507074522 41 265 1.7 6.1 0.00 0.00 0.00 74 1013.5
20260507074009 41 242 1.7 6.1 0.00 0.00 0.00 73 1013.6
20260507073508 41 205 0.0 3.5 0.00 0.00 0.00 73 1013.5
20260507073025 41 229 0.9 2.6 0.00 0.00 0.00 73 1013.6
20260507072507 42 246 0.0 2.6 0.00 0.00 0.00 73 1013.5
20260507072009 42 248 0.9 4.3 0.00 0.00 0.00 72 1013.5
20260507071527 42 247 0.9 4.3 0.00 0.00 0.00 72 1013.5
20260507071013 42 248 0.9 3.5 0.00 0.00 0.00 72 1013.6
20260507070508 42 231 0.9 3.5 0.00 0.00 0.00 72 1013.6
20260507070026 42 256 1.7 3.5 0.00 0.00 0.00 72 1013.6
20260507065503 43 269 1.7 3.5 0.00 0.00 0.00 71 1013.6
20260507065006 43 256 0.0 2.6 0.00 0.00 0.00 72 1013.7
20260507064517 43 259 0.9 2.6 0.00 0.00 0.00 72 1013.6
20260507064007 43 251 0.0 2.6 0.00 0.00 0.00 72 1013.7
20260507063511 43 250 0.9 3.5 0.00 0.00 0.00 73 1013.8
20260507063024 42 259 1.7 3.5 0.00 0.00 0.00 73 1013.9
20260507062510 42 246 0.9 3.5 0.00 0.00 0.00 75 1013.9
20260507062004 42 232 0.0 1.7 0.00 0.00 0.00 75 1013.9
20260507061505 41 232 0.9 2.6 0.00 0.00 0.00 76 1013.9
20260507061007 41 232 0.9 2.6 0.00 0.00 0.00 76 1014.0
20260507060502 41 235 0.0 2.6 0.00 0.00 0.00 77 1014.0
20260507060012 41 259 0.0 0.0 0.00 0.00 0.00 77 1013.9
20260507055504 41 259 0.0 0.0 0.00 0.00 0.00 77 1014.0
20260507055004 41 259 0.0 0.0 0.00 0.00 0.00 77 1014.0
20260507054516 41 259 0.0 0.0 0.00 0.00 0.00 78 1013.8
20260507054007 41 260 0.0 0.0 0.00 0.00 0.00 77 1013.8
20260507053509 41 259 0.0 0.0 0.00 0.00 0.00 77 1014.0
20260507053023 42 260 0.0 0.0 0.00 0.00 0.00 76 1014.0
20260507052508 42 259 0.0 0.0 0.00 0.00 0.00 76 1014.0
20260507052012 42 259 0.0 0.0 0.00 0.00 0.00 75 1014.0
20260507051525 42 259 0.0 0.0 0.00 0.00 0.00 74 1014.0
20260507051010 43 259 0.0 0.0 0.00 0.00 0.00 74 1013.9
20260507050503 43 259 0.0 0.0 0.00 0.00 0.00 73 1013.9
20260507050012 43 259 0.0 0.0 0.00 0.00 0.00 73 1013.9
20260507045503 44 259 0.0 0.0 0.00 0.00 0.00 73 1013.9
20260507045006 44 259 0.0 0.0 0.00 0.00 0.00 73 1013.9
20260507044527 44 259 0.0 0.0 0.00 0.00 0.00 72 1013.9
20260507044008 45 259 0.0 0.0 0.00 0.00 0.00 73 1013.9
20260507043506 45 259 0.0 0.0 0.00 0.00 0.00 72 1013.9
20260507043018 45 259 0.0 0.0 0.00 0.00 0.00 72 1013.9
20260507042507 45 259 0.0 0.0 0.00 0.00 0.00 70 1013.9
20260507042009 45 259 0.0 0.0 0.00 0.00 0.00 70 1014.0
20260507041523 46 259 0.0 0.0 0.00 0.00 0.00 70 1014.0
20260507041007 46 259 0.0 0.9 0.00 0.00 0.00 70 1013.9
20260507040511 46 259 0.0 0.9 0.00 0.00 0.00 70 1014.0
20260507040032 46 260 0.0 0.0 0.00 0.00 0.00 70 1014.0
20260507035510 46 259 0.0 0.0 0.00 0.00 0.00 70 1014.0
20260507035005 46 259 0.0 0.0 0.00 0.00 0.00 69 1014.1
20260507034510 46 259 0.0 0.0 0.00 0.00 0.00 68 1014.1
20260507034003 46 259 0.0 0.0 0.00 0.00 0.00 68 1014.0
20260507033505 46 259 0.0 0.0 0.00 0.00 0.00 67 1014.0
20260507033018 47 259 0.0 0.0 0.00 0.00 0.00 66 1014.0
20260507032504 47 259 0.0 0.0 0.00 0.00 0.00 66 1014.0
20260507032010 47 259 0.0 0.0 0.00 0.00 0.00 65 1014.1
20260507031522 47 259 0.0 0.0 0.00 0.00 0.00 65 1014.1
20260507031010 47 259 0.0 0.0 0.00 0.00 0.00 64 1014.2
20260507030509 47 259 0.0 0.0 0.00 0.00 0.00 63 1014.2
20260507030023 47 259 0.0 0.0 0.00 0.00 0.00 63 1014.2
20260507025506 47 259 0.0 0.0 0.00 0.00 0.00 61 1014.1
20260507025011 47 259 0.0 0.0 0.00 0.00 0.00 60 1014.1
20260507024529 47 259 0.0 0.0 0.00 0.00 0.00 56 1014.1
20260507024009 48 260 0.0 0.0 0.00 0.00 0.00 56 1014.2
20260507023505 48 259 0.0 0.0 0.00 0.00 0.00 57 1014.2
20260507023015 48 259 0.0 0.0 0.00 0.00 0.00 56 1014.2
20260507022504 48 259 0.0 0.0 0.00 0.00 0.00 56 1014.1
20260507022009 48 259 0.0 0.0 0.00 0.00 0.00 55 1014.2
20260507021522 48 259 0.0 0.0 0.00 0.00 0.00 55 1014.1
20260507021009 49 260 0.0 0.9 0.00 0.00 0.00 54 1014.2
20260507020508 49 259 0.0 1.7 0.00 0.00 0.00 54 1014.0
20260507020030 49 259 0.0 1.7 0.00 0.00 0.00 53 1014.1
20260507015508 49 259 0.0 1.7 0.00 0.00 0.00 53 1013.9
20260507015011 49 259 0.0 1.7 0.00 0.00 0.00 53 1013.9
20260507014529 49 259 0.0 2.6 0.00 0.00 0.00 52 1013.9
20260507014014 49 259 0.9 2.6 0.00 0.00 0.00 51 1013.9
20260507013510 49 259 0.0 2.6 0.00 0.00 0.00 51 1013.9
20260507013030 49 259 0.9 3.5 0.00 0.00 0.00 50 1013.9
20260507012509 49 248 0.9 3.5 0.00 0.00 0.00 49 1013.9
20260507012004 49 273 0.9 2.6 0.00 0.00 0.00 50 1013.8
20260507011520 49 259 0.0 3.5 0.00 0.00 0.00 49 1013.8
20260507011010 49 286 0.9 3.5 0.00 0.00 0.00 49 1013.7
20260507010507 50 279 0.0 2.6 0.00 0.00 0.00 49 1013.7
20260507010027 50 289 0.9 2.6 0.00 0.00 0.00 49 1013.6
20260507005509 50 277 0.9 3.5 0.00 0.00 0.00 48 1013.6
20260507005009 50 292 0.0 3.5 0.00 0.00 0.00 48 1013.6
20260507004530 50 270 0.9 6.1 0.00 0.00 0.00 47 1013.6
20260507004010 50 256 2.6 6.1 0.00 0.00 0.00 48 1013.7
20260507003508 50 277 0.9 4.3 0.00 0.00 0.00 47 1013.6
20260507003029 50 242 0.9 3.5 0.00 0.00 0.00 47 1013.6
20260507002512 50 292 0.9 5.2 0.00 0.00 0.00 47 1013.6
20260507002014 51 267 1.7 5.2 0.00 0.00 0.00 46 1013.5
20260507001535 51 272 0.9 8.7 0.00 0.00 0.00 45 1013.5
20260507001007 51 254 2.6 8.7 0.00 0.00 0.00 45 1013.5
20260507000506 51 280 1.7 5.2 0.00 0.00 0.00 46 1013.4
20260507000019 51 263 0.0 2.6 0.00 0.00 0.00 46 1013.4
20260506235507 51 265 0.9 3.5 0.00 0.00 0.00 45 1013.3
20260506235008 51 265 0.0 5.2 0.00 0.00 0.00 45 1013.3
20260506234524 51 258 1.7 5.2 0.00 0.00 0.00 44 1013.4
20260506234009 51 249 2.6 5.2 0.00 0.00 0.00 43 1013.4
20260506233510 51 281 0.9 3.5 0.00 0.00 0.00 45 1013.5
20260506233029 51 290 0.9 7.0 0.00 0.00 0.00 44 1013.5
20260506232511 51 259 1.7 7.8 0.00 0.00 0.00 45 1013.5
20260506232011 51 286 2.6 7.8 0.00 0.00 0.00 42 1013.5
20260506231529 51 267 2.6 7.0 0.00 0.00 0.00 42 1013.5
20260506231011 51 265 2.6 9.6 0.00 0.00 0.00 42 1013.5
20260506230509 52 253 3.5 12.2 0.00 0.00 0.00 42 1013.4
20260506230032 52 274 6.1 12.2 0.00 0.00 0.00 41 1013.4
20260506225507 52 264 3.5 12.2 0.00 0.00 0.00 43 1013.4
20260506225007 52 244 3.5 13.0 0.00 0.00 0.00 41 1013.3
20260506224524 52 285 7.0 13.0 0.00 0.00 0.00 40 1013.4
20260506224007 52 245 6.1 12.2 0.00 0.00 0.00 41 1013.4
20260506223508 52 255 6.1 12.2 0.00 0.00 0.00 40 1013.4
20260506223026 52 270 4.3 12.2 0.00 0.00 0.00 43 1013.5
20260506222511 52 255 5.2 12.2 0.00 0.00 0.00 42 1013.4
20260506222009 52 250 5.2 9.6 0.00 0.00 0.00 41 1013.5
20260506221528 52 291 4.3 11.3 0.00 0.00 0.00 41 1013.3
20260506221009 52 317 5.2 12.2 0.00 0.00 0.00 41 1013.3
20260506220511 52 315 5.2 12.2 0.00 0.00 0.00 40 1013.2
20260506220034 52 296 7.8 13.0 0.00 0.00 0.00 40 1013.2
20260506215507 52 238 5.2 13.0 0.00 0.00 0.00 41 1013.2
20260506215009 53 313 6.1 12.2 0.00 0.00 0.00 41 1013.3
20260506214522 53 287 7.0 13.0 0.00 0.00 0.00 41 1013.3
20260506214010 53 294 7.0 13.9 0.00 0.00 0.00 41 1013.3
20260506213511 53 260 6.1 13.9 0.00 0.00 0.00 42 1013.3
20260506213023 53 294 7.0 11.3 0.00 0.00 0.00 40 1013.2
20260506212508 53 282 5.2 10.4 0.00 0.00 0.00 41 1013.2
20260506212016 53 264 5.2 13.9 0.00 0.00 0.00 42 1013.2
20260506211525 53 238 6.1 13.9 0.00 0.00 0.00 41 1013.2
20260506211010 53 307 7.0 13.0 0.00 0.00 0.00 40 1013.1
20260506210510 54 292 7.0 14.8 0.00 0.00 0.00 41 1013.1
20260506210028 54 244 5.2 14.8 0.00 0.00 0.00 40 1013.1
20260506205509 54 232 5.2 13.0 0.00 0.00 0.00 42 1013.1
20260506205012 54 274 5.2 14.8 0.00 0.00 0.00 41 1013.1
20260506204520 54 277 7.0 14.8 0.00 0.00 0.00 40 1013.0
20260506204009 54 293 6.1 15.6 0.00 0.00 0.00 42 1013.0
20260506203508 54 281 7.0 15.6 0.00 0.00 0.00 42 1013.1
20260506203028 54 227 7.0 13.9 0.00 0.00 0.00 41 1013.0
20260506202506 54 298 6.1 13.0 0.00 0.00 0.00 40 1013.3
20260506202014 53 270 3.5 11.3 0.00 0.00 0.00 43 1013.3
20260506201526 53 271 7.0 11.3 0.00 0.00 0.00 42 1013.3
20260506201012 53 276 7.0 13.9 0.00 0.00 0.00 42 1013.4
20260506200513 54 249 3.5 13.9 0.00 0.00 0.00 40 1013.4
20260506200027 55 301 6.1 11.3 0.00 0.00 0.00 41 1013.4
20260506195509 55 280 6.1 12.2 0.00 0.00 0.00 39 1013.4
20260506195010 55 251 7.0 12.2 0.00 0.00 0.00 40 1013.3
20260506194526 54 268 7.0 11.3 0.00 0.00 0.00 41 1013.3
20260506194009 53 263 6.1 11.3 0.00 0.00 0.00 43 1013.4
20260506193507 53 246 6.1 12.2 0.00 0.00 0.00 39 1013.4
20260506193021 53 273 7.0 12.2 0.00 0.00 0.00 39 1013.5
20260506192510 54 236 3.5 12.2 0.00 0.00 0.00 41 1013.4
20260506192011 54 290 7.8 12.2 0.00 0.00 0.00 42 1013.7
20260506191534 54 236 7.0 12.2 0.00 0.00 0.00 44 1013.6
20260506191007 54 309 4.3 11.3 0.00 0.00 0.00 43 1013.6
20260506190509 54 49 5.2 11.3 0.00 0.00 0.00 41 1013.6
20260506190027 53 242 3.5 11.3 0.00 0.00 0.00 42 1013.5
20260506185507 53 275 5.2 11.3 0.00 0.00 0.00 41 1013.6
20260506185003 53 340 6.1 10.4 0.00 0.00 0.00 42 1013.6
20260506184526 53 267 3.5 11.3 0.00 0.00 0.00 43 1013.7
20260506184006 53 265 5.2 11.3 0.00 0.00 0.00 42 1013.8
20260506183508 53 229 5.2 11.3 0.00 0.00 0.00 40 1013.7
20260506183024 52 275 7.0 13.0 0.00 0.00 0.00 40 1013.7
20260506182507 52 276 7.0 13.0 0.00 0.00 0.00 41 1013.7
20260506182007 52 242 7.0 13.0 0.00 0.00 0.00 40 1013.6
20260506181504 53 275 4.3 14.8 0.00 0.00 0.00 40 1013.5
20260506181004 52 297 5.2 14.8 0.00 0.00 0.00 41 1013.3
20260506180504 52 257 5.2 9.6 0.00 0.00 0.00 41 1013.4
20260506180007 52 212 2.6 11.3 0.00 0.00 0.00 38 1013.4
20260506175506 52 287 7.0 11.3 0.00 0.00 0.00 39 1013.4
20260506175002 53 320 4.3 9.6 0.00 0.00 0.00 39 1013.4
20260506174514 53 274 4.3 8.7 0.00 0.00 0.00 43 1013.5
20260506174006 53 244 3.5 8.7 0.00 0.00 0.00 41 1013.4
20260506173505 52 281 5.2 11.3 0.00 0.00 0.00 41 1013.4
20260506173018 52 265 4.3 11.3 0.00 0.00 0.00 39 1013.5
20260506172507 52 286 7.0 11.3 0.00 0.00 0.00 40 1013.6
20260506172009 52 261 2.6 8.7 0.00 0.00 0.00 42 1013.5
20260506171529 52 314 4.3 10.4 0.00 0.00 0.00 40 1013.5
20260506171006 52 293 4.3 13.9 0.00 0.00 0.00 42 1013.6
20260506170509 51 271 7.0 13.9 0.00 0.00 0.00 42 1013.7
20260506170007 51 234 6.1 12.2 0.00 0.00 0.00 39 1013.6
20260506165504 51 286 5.2 12.2 0.00 0.00 0.00 38 1013.8
20260506165003 52 271 4.3 11.3 0.00 0.00 0.00 39 1013.8
20260506164512 51 248 4.3 10.4 0.00 0.00 0.00 41 1013.8
20260506164009 51 264 5.2 10.4 0.00 0.00 0.00 41 1013.9
20260506163512 51 278 5.2 9.6 0.00 0.00 0.00 40 1014.0
20260506163016 50 17 2.6 9.6 0.00 0.00 0.00 46 1013.9
20260506162507 50 289 6.1 9.6 0.00 0.00 0.00 44 1013.9
20260506162013 50 284 3.5 9.6 0.00 0.00 0.00 44 1013.8
20260506161521 50 257 5.2 9.6 0.00 0.00 0.00 44 1013.9
20260506161007 50 308 5.2 8.7 0.00 0.00 0.00 42 1013.8
20260506160509 50 232 4.3 8.7 0.00 0.01 0.00 44 1014.0
20260506160030 49 230 2.6 8.7 0.00 0.01 0.00 41 1013.8
20260506155509 49 332 1.7 11.3 0.00 0.01 0.00 43 1013.7
20260506155010 49 309 5.2 11.3 0.00 0.01 0.00 41 1013.8
20260506154513 50 304 4.3 9.6 0.00 0.01 0.00 43 1013.7
20260506154004 50 303 2.6 12.2 0.00 0.01 0.00 43 1013.5
20260506153505 50 96 4.3 12.2 0.00 0.01 0.00 42 1013.6
20260506153017 50 317 4.3 12.2 0.00 0.01 0.00 42 1013.7
20260506152505 50 317 5.2 12.2 0.00 0.01 0.00 40 1013.8
20260506152005 50 296 7.0 14.8 0.00 0.01 0.00 40 1013.6
20260506151532 50 306 1.7 14.8 0.00 0.01 0.00 44 1013.5
20260506151009 50 285 7.8 13.9 0.00 0.01 0.00 41 1013.5
20260506150507 49 312 2.6 9.6 0.00 0.01 0.00 45 1013.5
20260506150026 49 270 5.2 12.2 0.00 0.01 0.00 45 1013.5
20260506145514 49 327 7.0 12.2 0.00 0.01 0.00 43 1013.5
20260506145010 49 331 2.6 11.3 0.00 0.01 0.00 44 1013.5
20260506144528 49 324 3.5 11.3 0.00 0.01 0.00 45 1013.4
20260506144015 49 301 4.3 10.4 0.00 0.01 0.00 44 1013.4
20260506143508 50 306 4.3 10.4 0.00 0.01 0.00 44 1013.4
20260506143012 50 312 2.6 9.6 0.00 0.01 0.00 44 1013.3
20260506142505 49 276 1.7 8.7 0.00 0.01 0.00 47 1013.3
20260506142008 49 305 5.2 10.4 0.00 0.01 0.00 45 1013.2
20260506141518 48 302 1.7 11.3 0.00 0.01 0.00 46 1013.1
20260506141006 48 315 3.5 11.3 0.00 0.01 0.00 44 1013.1
20260506140507 48 257 5.2 9.6 0.00 0.01 0.00 43 1013.1
20260506140027 48 281 2.6 11.3 0.00 0.01 0.00 45 1013.2
20260506135507 48 289 7.0 12.2 0.00 0.01 0.00 42 1013.0
20260506135009 49 334 5.2 13.0 0.00 0.01 0.00 42 1012.9
20260506134526 48 339 2.6 13.0 0.00 0.01 0.00 46 1012.7
20260506134014 48 290 7.0 12.2 0.00 0.01 0.00 44 1012.7
20260506133511 48 9 6.1 13.0 0.00 0.01 0.00 45 1012.7
20260506133041 48 328 3.5 13.0 0.00 0.01 0.00 48 1012.5
20260506132510 47 250 2.6 10.4 0.00 0.01 0.00 49 1012.5
20260506132007 47 297 4.3 10.4 0.00 0.01 0.00 50 1012.4
20260506131517 46 336 6.1 9.6 0.00 0.01 0.00 51 1012.5
20260506131006 46 309 5.2 10.4 0.00 0.01 0.00 50 1012.5
20260506130506 46 311 4.3 10.4 0.00 0.01 0.00 51 1012.5
20260506130020 46 321 4.3 11.3 0.00 0.01 0.00 52 1012.7
20260506125505 46 284 3.5 11.3 0.00 0.01 0.00 53 1012.6
20260506125007 46 273 3.5 9.6 0.00 0.01 0.00 54 1012.6
20260506124524 45 329 5.2 8.7 0.00 0.01 0.00 55 1012.5
20260506124010 45 301 4.3 8.7 0.00 0.01 0.00 55 1012.4
20260506123511 45 313 3.5 7.8 0.00 0.01 0.00 55 1012.4
20260506123028 45 328 2.6 7.8 0.00 0.01 0.00 56 1012.2
20260506122507 44 5 3.5 8.7 0.00 0.01 0.00 57 1012.2
20260506122011 44 299 1.7 8.7 0.00 0.01 0.00 60 1012.1
20260506121530 44 309 2.6 7.0 0.00 0.01 0.00 59 1012.1
20260506121012 44 322 3.5 7.0 0.00 0.01 0.00 59 1012.0
20260506120507 43 350 2.6 7.0 0.00 0.01 0.00 61 1011.8
20260506120034 43 313 2.6 7.0 0.00 0.01 0.00 62 1011.9
20260506115507 43 314 2.6 6.1 0.00 0.01 0.00 63 1011.8
20260506115006 42 286 2.6 7.0 0.00 0.01 0.00 64 1011.6
20260506114521 42 313 3.5 7.0 0.00 0.01 0.00 64 1011.6
20260506114007 42 292 1.7 6.1 0.00 0.01 0.00 65 1011.5
20260506113508 41 311 1.7 7.8 0.00 0.01 0.00 65 1011.3
20260506113027 41 316 1.7 7.8 0.00 0.01 0.00 65 1011.1
20260506112511 41 319 2.6 6.1 0.00 0.01 0.00 66 1011.1
20260506112011 41 313 1.7 4.3 0.00 0.01 0.00 66 1011.2
20260506111528 41 307 0.9 4.3 0.00 0.01 0.00 67 1011.1
20260506111010 41 277 1.7 3.5 0.00 0.01 0.00 67 1011.3
20260506110513 41 287 1.7 3.5 0.00 0.01 0.00 67 1011.3
20260506110028 41 291 0.0 3.5 0.00 0.01 0.00 67 1011.2
20260506105511 41 304 1.7 3.5 0.00 0.01 0.00 67 1011.1
20260506105007 41 298 0.0 0.0 0.00 0.01 0.00 67 1011.1
20260506104518 41 298 0.0 1.7 0.00 0.01 0.00 67 1010.9
20260506104007 41 298 0.0 1.7 0.00 0.01 0.00 66 1011.0
20260506103506 42 298 0.0 1.7 0.00 0.01 0.00 65 1011.0
20260506103031 42 315 0.0 3.5 0.00 0.01 0.00 64 1010.8
20260506102508 42 316 0.9 3.5 0.00 0.01 0.00 62 1010.6
20260506102011 42 336 0.0 2.6 0.00 0.01 0.00 62 1010.6
20260506101537 43 287 0.9 2.6 0.00 0.01 0.00 62 1010.5
20260506101014 43 318 0.0 4.3 0.00 0.01 0.00 61 1010.5
20260506100507 43 325 0.9 4.3 0.00 0.01 0.00 61 1010.4
20260506100033 43 290 0.9 4.3 0.00 0.01 0.00 61 1010.5
20260506095511 43 294 2.6 4.3 0.00 0.01 0.00 60 1010.5
20260506095006 44 290 0.9 5.2 0.00 0.01 0.00 61 1010.5
20260506094516 44 306 0.9 6.1 0.00 0.01 0.00 61 1010.5
20260506094006 44 331 1.7 6.1 0.00 0.01 0.00 61 1010.7
20260506093507 44 304 1.7 4.3 0.00 0.01 0.00 60 1010.6
20260506093024 44 317 0.9 6.1 0.00 0.01 0.00 61 1010.7
20260506092509 44 333 1.7 6.1 0.00 0.01 0.00 61 1010.7
20260506092011 44 347 0.9 3.5 0.00 0.01 0.00 61 1010.6
20260506091510 44 316 1.7 4.3 0.00 0.01 0.00 62 1010.4
20260506091004 44 17 0.9 4.3 0.00 0.01 0.00 61 1010.1
20260506090502 45 333 0.9 6.1 0.00 0.01 0.00 61 1010.1
20260506090007 45 299 2.6 6.1 0.00 0.01 0.00 61 1010.0
20260506085503 45 300 1.7 4.3 0.00 0.01 0.00 61 1010.1
20260506085010 45 299 0.9 7.0 0.00 0.01 0.00 61 1010.0
20260506084523 45 306 1.7 7.0 0.00 0.01 0.00 61 1009.9
20260506084007 45 320 2.6 7.0 0.00 0.01 0.00 61 1009.9
20260506083510 45 318 0.9 7.8 0.00 0.01 0.00 61 1009.7
20260506083025 45 339 2.6 7.8 0.00 0.01 0.00 60 1009.7
20260506082508 45 350 2.6 7.0 0.00 0.01 0.00 60 1009.9
20260506082007 45 286 2.6 7.0 0.00 0.01 0.00 60 1010.0
20260506081527 45 316 3.5 7.0 0.00 0.01 0.00 60 1009.9
20260506081010 45 360 2.6 7.8 0.00 0.01 0.00 61 1009.8
20260506080504 45 17 1.7 7.8 0.00 0.01 0.00 60 1009.8